Flag for United Kingdom Weather past 2 weeks in Weymouth, England, United Kingdom

Now
66 °F

Mild.


Feels Like: 66 °F
Forecast: 61 / 70 °F
Wind: 7 mph from North

Location: Isle Of Portland

Current Time: Jul 26, 2014 at 4:06:47 AM

Latest Report: Jul 26, 2014 at 3:00 AM


Visibility: 19 mi

Pressure: 30.03 "Hg

Humidity: 75%

Dew point: 58 °F

Location of WeymouthLocation

Historic Weather in Weymouth — Graph

°F

Weymouth temperature yesterday

Maximum temperature yesterday: 78 °F (at 1:00 PM)
Minimum temperature yesterday: 64 °F (at 6:00 AM)
Average temperature yesterday: 69 °F

Past Weeks' High & Low Weather Summary

 TemperatureHumidityPressure
High78 °F (Jul 25, 1:00 PM)98% (Jul 15, 4:00 AM)30.22 "Hg (Jul 15, 4:00 AM)
Low58 °F (Jul 14, 5:00 AM)54% (Jul 22, 12:00 PM)29.74 "Hg (Jul 19, 7:00 AM)
Average65 °F81%30.01 "Hg
* Reported Jul 11 2:00 AM — Jul 26 2:00 AM, Weymouth, Weather by CustomWeather, © 2014

Note: Actual official high and low records may vary slightly from our data, if they occured in-between our weather recording intervals... More about our weather records

Advertising

Weymouth weather history for previous 24 hours

 ConditionsComfort  
Time TempWeatherWind HumidityBarometerVisibility
2:00 AM
Jul 26
67 °FMild.7 mph70%30.03 "Hg17 mi
1:00 AM67 °FMild.8 mph72%30.04 "Hg12 mi
12:00 AM67 °FMild.9 mph72%30.03 "Hg14 mi
11:00 PM
Jul 25
67 °FMild.8 mph81%30.04 "Hg12 mi
10:00 PM65 °FMild.7 mph82%30.03 "Hg17 mi
9:00 PM66 °FMild.5 mph77%30.02 "Hg19 mi
8:00 PM69 °FMild.5 mph69%30.02 "Hg22 mi
7:00 PM71 °FMild.6 mph62%30.03 "Hg22 mi
6:00 PM70 °FMild.7 mph70%30.01 "Hg12 mi
5:00 PM70 °FMild.7 mph70%30.01 "Hg10 mi
4:00 PM71 °FMild.6 mph74%30.02 "Hg11 mi
3:00 PM75 °FMild.9 mph63%30.01 "Hg12 mi
2:00 PM75 °FMild.9 mph68%30.02 "Hg14 mi
1:00 PM78 °FWarm.10 mph55%30.02 "Hg19 mi
12:00 PM76 °FMild.13 mph56%30.03 "Hg17 mi
11:00 AM77 °FWarm.13 mph55%30.02 "Hg18 mi
10:00 AM73 °FMild.15 mph63%30.03 "Hg25 mi
9:00 AM70 °FMild.13 mph68%30.03 "Hg19 mi
8:00 AM66 °FMild.17 mph73%30.02 "Hg13 mi
7:00 AM64 °FMild.16 mph74%30.01 "Hg17 mi
6:00 AM64 °FMild.16 mph70%30.01 "Hg25 mi
5:00 AM64 °FMild.14 mph70%30.01 "Hg22 mi
4:00 AM66 °FMild.10 mph67%30.01 "Hg25 mi
Weather by CustomWeather, © 2014

See weather overviewHow to use our weather pages